ICE821 BIKF-KRDU

Flight info

Callsign ICE821
Flight time N/A
Altitude 34000
Route RALOV3A RALOV DCT RAKIS DCT 6330N DCT 60N044W/N0453F340 DCT JANJO DCT DANOL/N0453F360 DCT BGR DCT MHT DCT HFD DCT JFK Q450 HNNAH DCT VILLS DCT NALES Q141 HOUKY TAQLE3
Aircraft A21N/M-SDE2E3FGHIJ1RWXY/LB1

Departure

Time 2026-05-06 17:40
Airport Keflavik International Airport (BIKF)

Arrival

Time N/A
Airport Raleigh-Durham International Airport (KRDU)
Time Latitude Longitude Altitude Speed Heading
2026-05-06 17:17 63.99280 -22.62201 180 ft 0 kts 316°
2026-05-06 17:29 63.99274 -22.62188 180 ft 2 kts 316°
2026-05-06 17:29 63.99264 -22.62165 180 ft 2 kts 316°
2026-05-06 17:29 63.99253 -22.62142 180 ft 1 kts 316°
2026-05-06 17:30 63.99246 -22.62126 180 ft 2 kts 306°
2026-05-06 17:30 63.99240 -22.62094 180 ft 2 kts 279°
2026-05-06 17:30 63.99240 -22.62060 180 ft 2 kts 256°
2026-05-06 17:30 63.99245 -22.62028 180 ft 2 kts 233°
2026-05-06 17:31 63.99256 -22.62005 180 ft 2 kts 210°
2026-05-06 17:31 63.99271 -22.61993 180 ft 2 kts 186°
2026-05-06 17:31 63.99278 -22.61992 180 ft 1 kts 176°
2026-05-06 17:31 63.99281 -22.61992 180 ft 0 kts 179°
2026-05-06 17:33 63.99271 -22.61992 180 ft 5 kts 179°
2026-05-06 17:33 63.99204 -22.61996 180 ft 11 kts 176°
2026-05-06 17:33 63.99172 -22.61844 180 ft 13 kts 91°
2026-05-06 17:34 63.99173 -22.61616 180 ft 16 kts 88°
2026-05-06 17:34 63.99172 -22.61328 180 ft 20 kts 90°
2026-05-06 17:34 63.99170 -22.61000 180 ft 19 kts 113°
2026-05-06 17:34 63.99043 -22.60949 180 ft 22 kts 178°
2026-05-06 17:35 63.98872 -22.60947 180 ft 24 kts 179°
2026-05-06 17:35 63.98702 -22.60948 180 ft 23 kts 180°
2026-05-06 17:35 63.98537 -22.60947 180 ft 23 kts 179°
2026-05-06 17:36 63.98151 -22.60945 180 ft 28 kts 179°
2026-05-06 17:36 63.97959 -22.60949 180 ft 27 kts 180°
2026-05-06 17:36 63.97766 -22.60948 180 ft 28 kts 179°
2026-05-06 17:36 63.97567 -22.60948 180 ft 28 kts 181°
2026-05-06 17:37 63.97367 -22.60948 180 ft 29 kts 179°
2026-05-06 17:37 63.97162 -22.60945 180 ft 28 kts 178°
2026-05-06 17:37 63.96969 -22.60951 180 ft 27 kts 179°
2026-05-06 17:37 63.96783 -22.60948 180 ft 25 kts 180°
2026-05-06 17:38 63.96608 -22.60945 180 ft 24 kts 179°
2026-05-06 17:38 63.96464 -22.60865 180 ft 20 kts 104°
2026-05-06 17:38 63.96456 -22.60564 180 ft 12 kts 95°
2026-05-06 17:38 63.96463 -22.60534 180 ft 0 kts 355°
2026-05-06 17:39 63.96463 -22.60535 180 ft 0 kts 355°
2026-05-06 17:39 63.96626 -22.60549 180 ft 57 kts 354°
2026-05-06 17:39 63.97253 -22.60541 180 ft 118 kts
2026-05-06 17:39 63.98234 -22.60555 242 ft 159 kts
2026-05-06 17:40 63.99289 -22.60588 965 ft 149 kts
2026-05-06 17:40 64.00326 -22.60577 1431 ft 152 kts
2026-05-06 17:40 64.01444 -22.60551 1664 ft 166 kts
2026-05-06 17:40 64.02646 -22.60532 1937 ft 178 kts
2026-05-06 17:41 64.03930 -22.60580 2210 ft 193 kts 356°
2026-05-06 17:41 64.05234 -22.61798 2403 ft 220 kts 325°
2026-05-06 17:41 64.06200 -22.64725 2696 ft 247 kts 295°
2026-05-06 17:41 64.06373 -22.68807 3058 ft 270 kts 264°
2026-05-06 17:42 64.06020 -22.73019 3719 ft 272 kts 263°
2026-05-06 17:42 64.05688 -22.77273 4422 ft 272 kts 263°
2026-05-06 17:42 64.05373 -22.81485 5114 ft 273 kts 263°
2026-05-06 17:42 64.05058 -22.85742 5792 ft 274 kts 262°
2026-05-06 17:43 64.04740 -22.90045 6455 ft 276 kts 262°
2026-05-06 17:43 64.04417 -22.94354 7134 ft 277 kts 262°
2026-05-06 17:43 64.04086 -22.98702 7746 ft 280 kts 262°
2026-05-06 17:43 64.03753 -23.03056 8331 ft 283 kts 262°
2026-05-06 17:44 64.03411 -23.07533 8882 ft 287 kts 263°
2026-05-06 17:44 64.03068 -23.12046 9447 ft 291 kts 263°
2026-05-06 17:44 64.02711 -23.16649 10010 ft 294 kts 263°
2026-05-06 17:44 64.02351 -23.21211 10536 ft 298 kts 263°
2026-05-06 17:45 64.01974 -23.25989 10816 ft 311 kts 263°
2026-05-06 17:45 64.01580 -23.30947 11070 ft 324 kts 263°
2026-05-06 17:45 64.01170 -23.36075 11321 ft 336 kts 263°
2026-05-06 17:45 64.00739 -23.41430 11621 ft 347 kts 262°
2026-05-06 17:46 64.00298 -23.46864 12111 ft 350 kts 262°
2026-05-06 17:46 63.99852 -23.52321 12629 ft 353 kts 263°
2026-05-06 17:46 63.99403 -23.57788 13120 ft 356 kts 263°
2026-05-06 17:46 63.98940 -23.63405 13613 ft 359 kts 263°
2026-05-06 17:47 63.98482 -23.68954 14091 ft 361 kts 262°
2026-05-06 17:47 63.98012 -23.74599 14557 ft 364 kts 262°
2026-05-06 17:47 63.97537 -23.80278 15031 ft 366 kts 262°
2026-05-06 17:47 63.97060 -23.85961 15487 ft 369 kts 262°
2026-05-06 17:48 63.96579 -23.91706 15934 ft 372 kts 262°
2026-05-06 17:48 63.96097 -23.97465 16383 ft 374 kts 262°
2026-05-06 17:48 63.95607 -24.03286 16821 ft 376 kts 262°
2026-05-06 17:48 63.95107 -24.09196 17258 ft 378 kts 262°
2026-05-06 17:49 63.94614 -24.14985 17667 ft 380 kts 262°
2026-05-06 17:49 63.94108 -24.20901 18082 ft 382 kts 262°
2026-05-06 17:49 63.93597 -24.26854 18479 ft 384 kts 262°
2026-05-06 17:49 63.93080 -24.32835 18872 ft 386 kts 262°
2026-05-06 17:50 63.92563 -24.38795 19302 ft 387 kts 262°
2026-05-06 17:50 63.92042 -24.44769 19690 ft 388 kts 262°
2026-05-06 17:50 63.91513 -24.50796 20055 ft 390 kts 262°
2026-05-06 17:50 63.90977 -24.56857 20399 ft 393 kts 262°
2026-05-06 17:51 63.90432 -24.62995 20733 ft 395 kts 262°
2026-05-06 17:51 63.89883 -24.69145 21059 ft 397 kts 261°
2026-05-06 17:51 63.89328 -24.75314 21381 ft 400 kts 261°
2026-05-06 17:51 63.88770 -24.81499 21699 ft 402 kts 262°
2026-05-06 17:52 63.88154 -24.87725 22012 ft 405 kts 258°
2026-05-06 17:52 63.87399 -24.93841 22326 ft 407 kts 257°
2026-05-06 17:52 63.86600 -25.00045 22625 ft 410 kts 257°
2026-05-06 17:52 63.85791 -25.06265 22925 ft 411 kts 257°
2026-05-06 17:53 63.84988 -25.12423 23228 ft 413 kts 257°
2026-05-06 17:53 63.84166 -25.18708 23538 ft 414 kts 257°
2026-05-06 17:53 63.83346 -25.24960 23830 ft 416 kts 257°
2026-05-06 17:53 63.82524 -25.31206 24097 ft 417 kts 257°
2026-05-06 17:54 63.81691 -25.37521 24359 ft 419 kts 257°
2026-05-06 17:54 63.80853 -25.43845 24627 ft 421 kts 257°
2026-05-06 17:54 63.80008 -25.50192 24881 ft 423 kts 257°
2026-05-06 17:54 63.79153 -25.56592 25135 ft 424 kts 257°
2026-05-06 17:55 63.78297 -25.62979 25391 ft 426 kts 257°
2026-05-06 17:55 63.77437 -25.69375 25627 ft 427 kts 256°
2026-05-06 17:55 63.76580 -25.75729 25855 ft 429 kts 256°
2026-05-06 17:55 63.75706 -25.82173 26087 ft 430 kts 256°
2026-05-06 17:56 63.74824 -25.88651 26312 ft 431 kts 256°
2026-05-06 17:56 63.73937 -25.95140 26519 ft 433 kts 256°
2026-05-06 17:56 63.73041 -26.01675 26724 ft 435 kts 255°
2026-05-06 17:56 63.72149 -26.08148 26923 ft 436 kts 255°
2026-05-06 17:57 63.71251 -26.14639 27124 ft 437 kts 255°
2026-05-06 17:57 63.70344 -26.21173 27326 ft 439 kts 255°
2026-05-06 17:57 63.69424 -26.27775 27529 ft 440 kts 255°
2026-05-06 17:57 63.68512 -26.34294 27738 ft 441 kts 255°
2026-05-06 17:58 63.67588 -26.40875 27947 ft 442 kts 255°
2026-05-06 17:58 63.66656 -26.47481 28150 ft 442 kts 255°
2026-05-06 17:58 63.65725 -26.54051 28349 ft 443 kts 255°
2026-05-06 17:58 63.64787 -26.60652 28528 ft 445 kts 255°
2026-05-06 17:59 63.63841 -26.67284 28702 ft 446 kts 254°
2026-05-06 17:59 63.62884 -26.73963 28876 ft 447 kts 254°
2026-05-06 17:59 63.61935 -26.80559 29039 ft 449 kts 254°
2026-05-06 17:59 63.60972 -26.87225 29189 ft 450 kts 254°
2026-05-06 18:00 63.59998 -26.93937 29352 ft 451 kts 254°
2026-05-06 18:00 63.59021 -27.00643 29487 ft 452 kts 254°
2026-05-06 18:00 63.57950 -27.07260 29635 ft 455 kts 251°
2026-05-06 18:00 63.56748 -27.13842 29792 ft 456 kts 250°
2026-05-06 18:01 63.55541 -27.20365 29975 ft 455 kts 250°
2026-05-06 18:01 63.54328 -27.26887 30178 ft 454 kts 250°
2026-05-06 18:01 63.53099 -27.33481 30394 ft 453 kts 250°
2026-05-06 18:01 63.51889 -27.39952 30575 ft 453 kts 250°
2026-05-06 18:02 63.50665 -27.46479 30768 ft 453 kts 250°
2026-05-06 18:02 63.49441 -27.52985 30935 ft 453 kts 250°
2026-05-06 18:02 63.48226 -27.59430 31109 ft 452 kts 250°
2026-05-06 18:02 63.47004 -27.65886 31247 ft 452 kts 249°
2026-05-06 18:03 63.45770 -27.72390 31398 ft 451 kts 249°
2026-05-06 18:03 63.44559 -27.78751 31545 ft 451 kts 249°
2026-05-06 18:03 63.43328 -27.85200 31679 ft 451 kts 249°
2026-05-06 18:03 63.42099 -27.91614 31804 ft 450 kts 249°
2026-05-06 18:04 63.40871 -27.98001 31951 ft 450 kts 249°
2026-05-06 18:04 63.39627 -28.04456 32079 ft 450 kts 249°
2026-05-06 18:04 63.38397 -28.10813 32206 ft 449 kts 249°
2026-05-06 18:04 63.37164 -28.17168 32336 ft 449 kts 249°
2026-05-06 18:05 63.35932 -28.23496 32463 ft 449 kts 250°
2026-05-06 18:05 63.34682 -28.29899 32581 ft 449 kts 250°
2026-05-06 18:05 63.33450 -28.36187 32684 ft 449 kts 250°
2026-05-06 18:05 63.32199 -28.42557 32794 ft 450 kts 250°
2026-05-06 18:06 63.30948 -28.48902 32905 ft 450 kts 250°
2026-05-06 18:06 63.29697 -28.55228 33000 ft 450 kts 250°
2026-05-06 18:06 63.28438 -28.61578 33111 ft 451 kts 250°
2026-05-06 18:06 63.27169 -28.67953 33216 ft 451 kts 249°
2026-05-06 18:07 63.25901 -28.74305 33325 ft 452 kts 249°
2026-05-06 18:07 63.24633 -28.80644 33422 ft 453 kts 249°
2026-05-06 18:07 63.23341 -28.87075 33527 ft 453 kts 249°
2026-05-06 18:07 63.22071 -28.93380 33633 ft 454 kts 249°
2026-05-06 18:08 63.20779 -28.99772 33741 ft 454 kts 249°
2026-05-06 18:08 63.19498 -29.06092 33860 ft 454 kts 249°
2026-05-06 18:08 63.18200 -29.12478 33974 ft 455 kts 249°
2026-05-06 18:08 63.16910 -29.18803 34071 ft 456 kts 249°
2026-05-06 18:09 63.15610 -29.25159 34188 ft 456 kts 249°
2026-05-06 18:09 63.14307 -29.31509 34301 ft 457 kts 249°
2026-05-06 18:09 63.11667 -29.44311 34342 ft 457 kts 249°
2026-05-06 18:10 63.09036 -29.56991 34349 ft 457 kts 249°
2026-05-06 18:10 63.06388 -29.69677 34344 ft 457 kts 249°
2026-05-06 18:11 63.03712 -29.82422 34354 ft 457 kts 248°
2026-05-06 18:11 63.01036 -29.95118 34352 ft 457 kts 250°
2026-05-06 18:12 62.98788 -30.08051 34359 ft 455 kts 256°
2026-05-06 18:12 62.96840 -30.21252 34363 ft 455 kts 256°
2026-05-06 18:13 62.94888 -30.34385 34374 ft 455 kts 256°
2026-05-06 18:13 62.92910 -30.47570 34385 ft 454 kts 256°
2026-05-06 18:14 62.90931 -30.60649 34383 ft 453 kts 256°
2026-05-06 18:14 62.88936 -30.73723 34388 ft 453 kts 255°
2026-05-06 18:15 62.86927 -30.86795 34393 ft 454 kts 255°
2026-05-06 18:15 62.84901 -30.99876 34389 ft 454 kts 255°
2026-05-06 18:16 62.82868 -31.12920 34381 ft 455 kts 255°
2026-05-06 18:16 62.80818 -31.25970 34379 ft 455 kts 255°
2026-05-06 18:17 62.78764 -31.38946 34377 ft 454 kts 255°
2026-05-06 18:17 62.76690 -31.51958 34380 ft 454 kts 255°
2026-05-06 18:18 62.74614 -31.64893 34377 ft 453 kts 256°
2026-05-06 18:18 62.72512 -31.77904 34378 ft 454 kts 255°
2026-05-06 18:19 62.70412 -31.90805 34378 ft 454 kts 255°
2026-05-06 18:19 62.68301 -32.03665 34380 ft 454 kts 255°
2026-05-06 18:20 62.66166 -32.16589 34391 ft 454 kts 255°
2026-05-06 18:20 62.64034 -32.29414 34393 ft 453 kts 255°
2026-05-06 18:21 62.61870 -32.42341 34399 ft 453 kts 255°
2026-05-06 18:21 62.59710 -32.55148 34396 ft 453 kts 255°
2026-05-06 18:22 62.57549 -32.67876 34396 ft 452 kts 254°
2026-05-06 18:22 62.55373 -32.80608 34395 ft 453 kts 254°
2026-05-06 18:23 62.53171 -32.93406 34405 ft 452 kts 254°
2026-05-06 18:23 62.50977 -33.06066 34408 ft 452 kts 254°
2026-05-06 18:24 62.48754 -33.18815 34407 ft 452 kts 254°
2026-05-06 18:24 62.46544 -33.31401 34415 ft 452 kts 254°
2026-05-06 18:25 62.44298 -33.44112 34416 ft 452 kts 254°
2026-05-06 18:25 62.42056 -33.56713 34418 ft 451 kts 254°
2026-05-06 18:26 62.39803 -33.69296 34419 ft 450 kts 253°
2026-05-06 18:26 62.37550 -33.81785 34418 ft 451 kts 253°
2026-05-06 18:27 62.35272 -33.94335 34419 ft 450 kts 253°
2026-05-06 18:27 62.32987 -34.06860 34422 ft 451 kts 253°
2026-05-06 18:28 62.30686 -34.19388 34420 ft 451 kts 253°
2026-05-06 18:28 62.28383 -34.31832 34422 ft 450 kts 253°
2026-05-06 18:29 62.26071 -34.44249 34420 ft 450 kts 253°
2026-05-06 18:29 62.23746 -34.56667 34423 ft 449 kts 253°
2026-05-06 18:30 62.21405 -34.69086 34427 ft 449 kts 253°
2026-05-06 18:30 62.19059 -34.81459 34420 ft 449 kts 253°
2026-05-06 18:31 62.16715 -34.93747 34419 ft 449 kts 252°
2026-05-06 18:31 62.14356 -35.06020 34418 ft 449 kts 253°
2026-05-06 18:32 62.11974 -35.18339 34420 ft 448 kts 253°
2026-05-06 18:32 62.09597 -35.30570 34416 ft 448 kts 253°
2026-05-06 18:33 62.07202 -35.42810 34420 ft 448 kts 253°
2026-05-06 18:33 62.04794 -35.55047 34425 ft 447 kts 253°
2026-05-06 18:34 62.02392 -35.67169 34432 ft 447 kts 252°
2026-05-06 18:34 61.99963 -35.79369 34441 ft 447 kts 252°
2026-05-06 18:35 61.97550 -35.91409 34439 ft 447 kts 252°
2026-05-06 18:35 61.95104 -36.03537 34449 ft 446 kts 252°
2026-05-06 18:36 61.92660 -36.15591 34447 ft 446 kts 253°
2026-05-06 18:36 61.90203 -36.27634 34447 ft 446 kts 253°
2026-05-06 18:37 61.88142 -36.37679 34452 ft 446 kts 253°
2026-05-06 18:37 61.85272 -36.51593 34450 ft 445 kts 253°
2026-05-06 18:38 61.82785 -36.63576 34440 ft 444 kts 253°
2026-05-06 18:38 61.80287 -36.75542 34444 ft 444 kts 252°
2026-05-06 18:39 61.77801 -36.87373 34444 ft 444 kts 252°
2026-05-06 18:40 61.74026 -37.05220 34449 ft 443 kts 253°
2026-05-06 18:40 61.71521 -37.16973 34456 ft 443 kts 253°
2026-05-06 18:41 61.68988 -37.28797 34444 ft 443 kts 253°
2026-05-06 18:41 61.66457 -37.40545 34457 ft 442 kts 253°
2026-05-06 18:42 61.63912 -37.52297 34460 ft 443 kts 253°
2026-05-06 18:42 61.61352 -37.64046 34465 ft 442 kts 254°
2026-05-06 18:43 61.58786 -37.75757 34454 ft 443 kts 253°
2026-05-06 18:43 61.56200 -37.87496 34471 ft 444 kts 253°
2026-05-06 18:44 61.53621 -37.99141 34458 ft 443 kts 253°
2026-05-06 18:44 61.51028 -38.10772 34470 ft 443 kts 253°
2026-05-06 18:45 61.48414 -38.22446 34456 ft 444 kts 253°
2026-05-06 18:45 61.45798 -38.34070 34446 ft 444 kts 253°
2026-05-06 18:46 61.43159 -38.45731 34439 ft 444 kts 253°
2026-05-06 18:46 61.40526 -38.57288 34471 ft 445 kts 253°
2026-05-06 18:47 61.37858 -38.68944 34454 ft 444 kts 253°
2026-05-06 18:47 61.35204 -38.80470 34456 ft 444 kts 253°
2026-05-06 18:48 61.32536 -38.92016 34441 ft 446 kts 253°
2026-05-06 18:48 61.29856 -39.03533 34459 ft 444 kts 253°
2026-05-06 18:49 61.27153 -39.15096 34448 ft 446 kts 253°
2026-05-06 18:49 61.24438 -39.26639 34441 ft 448 kts 252°
2026-05-06 18:50 61.21701 -39.38219 34441 ft 448 kts 252°
2026-05-06 18:50 61.18952 -39.49793 34434 ft 449 kts 252°
2026-05-06 18:51 61.16198 -39.61313 34430 ft 449 kts 252°
2026-05-06 18:51 61.13443 -39.72786 34437 ft 449 kts 251°
2026-05-06 18:52 61.10643 -39.84382 34432 ft 452 kts 251°
2026-05-06 18:52 61.07836 -39.95941 34435 ft 451 kts 250°
2026-05-06 18:53 61.05027 -40.07453 34413 ft 451 kts 250°
2026-05-06 18:53 61.02218 -40.18893 34417 ft 451 kts 250°
2026-05-06 18:54 60.99391 -40.30356 34419 ft 451 kts 250°
2026-05-06 18:54 60.96547 -40.41834 34418 ft 452 kts 250°
2026-05-06 18:55 60.93683 -40.53333 34422 ft 453 kts 250°
2026-05-06 18:55 60.90809 -40.64804 34420 ft 453 kts 249°
2026-05-06 18:56 60.87923 -40.76257 34426 ft 454 kts 249°
2026-05-06 18:56 60.85024 -40.87710 34429 ft 454 kts 249°
2026-05-06 18:57 60.82125 -40.99106 34431 ft 454 kts 248°
2026-05-06 18:57 60.79201 -41.10536 34437 ft 454 kts 248°
2026-05-06 18:58 60.76271 -41.21939 34438 ft 455 kts 248°
2026-05-06 18:58 60.73323 -41.33346 34436 ft 454 kts 248°
2026-05-06 18:59 60.70381 -41.44671 34439 ft 455 kts 248°
2026-05-06 18:59 60.67416 -41.56029 34443 ft 454 kts 248°
2026-05-06 19:00 60.64454 -41.67325 34442 ft 454 kts 246°
2026-05-06 19:00 60.61466 -41.78652 34443 ft 454 kts 246°
2026-05-06 19:01 60.58488 -41.89892 34442 ft 453 kts 246°
2026-05-06 19:01 60.55487 -42.01159 34444 ft 454 kts 246°
2026-05-06 19:02 60.52478 -42.12403 34442 ft 452 kts 245°
2026-05-06 19:02 60.49478 -42.23546 34444 ft 453 kts 245°
2026-05-06 19:03 60.46475 -42.34658 34440 ft 451 kts 245°
2026-05-06 19:03 60.43453 -42.45785 34439 ft 451 kts 245°
2026-05-06 19:04 60.40429 -42.56857 34439 ft 450 kts 245°
2026-05-06 19:04 60.37421 -42.67819 34432 ft 449 kts 244°
2026-05-06 19:05 60.34375 -42.78872 34430 ft 449 kts 244°
2026-05-06 19:05 60.31349 -42.89787 34431 ft 448 kts 243°
2026-05-06 19:06 60.28298 -43.00750 34434 ft 447 kts 243°
2026-05-06 19:06 60.25250 -43.11649 34429 ft 446 kts 243°
2026-05-06 19:07 60.22212 -43.22454 34427 ft 445 kts 243°
2026-05-06 19:07 60.19165 -43.33248 34415 ft 444 kts 243°
2026-05-06 19:08 60.16107 -43.44021 34398 ft 444 kts 243°
2026-05-06 19:08 60.13040 -43.54783 34373 ft 444 kts 243°
2026-05-06 19:09 60.09980 -43.65471 34355 ft 443 kts 242°
2026-05-06 19:09 60.06905 -43.76157 34341 ft 443 kts 242°
2026-05-06 19:10 60.03822 -43.86824 34334 ft 443 kts 241°
2026-05-06 19:10 60.00737 -43.97423 34346 ft 443 kts 241°
2026-05-06 19:11 59.97348 -44.07659 34364 ft 443 kts 237°
2026-05-06 19:11 59.93863 -44.17730 34354 ft 441 kts 237°
2026-05-06 19:12 59.90377 -44.27764 34330 ft 440 kts 237°
2026-05-06 19:12 59.86908 -44.37708 34330 ft 439 kts 237°
2026-05-06 19:13 59.83427 -44.47644 34323 ft 438 kts 237°
2026-05-06 19:13 59.79943 -44.57542 34306 ft 437 kts 237°
2026-05-06 19:14 59.76469 -44.67371 34312 ft 437 kts 236°
2026-05-06 19:14 59.72971 -44.77228 34311 ft 437 kts 236°
2026-05-06 19:15 59.69495 -44.86984 34296 ft 437 kts 236°
2026-05-06 19:15 59.65975 -44.96824 34291 ft 437 kts 236°
2026-05-06 19:16 59.62477 -45.06556 34283 ft 436 kts 236°
2026-05-06 19:16 59.58978 -45.16257 34276 ft 435 kts 236°
2026-05-06 19:17 59.55489 -45.25883 34271 ft 434 kts 236°
2026-05-06 19:17 59.51994 -45.35487 34273 ft 434 kts 236°
2026-05-06 19:18 59.48486 -45.45089 34271 ft 433 kts 236°
2026-05-06 19:18 59.44982 -45.54645 34269 ft 432 kts 236°
2026-05-06 19:19 59.41465 -45.64195 34267 ft 431 kts 236°
2026-05-06 19:19 59.37981 -45.73622 34261 ft 431 kts 235°
2026-05-06 19:20 59.34466 -45.83089 34262 ft 430 kts 235°
2026-05-06 19:20 59.30951 -45.92521 34253 ft 430 kts 235°
2026-05-06 19:21 59.27452 -46.01870 34251 ft 428 kts 235°
2026-05-06 19:21 59.23953 -46.11176 34251 ft 427 kts 235°
2026-05-06 19:22 59.20449 -46.20466 34251 ft 425 kts 235°
2026-05-06 19:22 59.16946 -46.29709 34244 ft 423 kts 236°
2026-05-06 19:23 59.13477 -46.38835 34243 ft 422 kts 236°
2026-05-06 19:23 59.10000 -46.47942 34232 ft 421 kts 236°
2026-05-06 19:24 59.06515 -46.57043 34231 ft 420 kts 236°
2026-05-06 19:24 59.03053 -46.66039 34229 ft 418 kts 236°
2026-05-06 19:25 58.99570 -46.75056 34217 ft 416 kts 236°
2026-05-06 19:25 58.96127 -46.83956 34214 ft 415 kts 236°
2026-05-06 19:26 58.92665 -46.92854 34206 ft 413 kts 236°
2026-05-06 19:26 58.89232 -47.01645 34195 ft 412 kts 237°
2026-05-06 19:27 58.85794 -47.10427 34182 ft 410 kts 237°
2026-05-06 19:27 58.82365 -47.19150 34173 ft 408 kts 236°
2026-05-06 19:28 58.78950 -47.27797 34173 ft 408 kts 236°
2026-05-06 19:28 58.75520 -47.36449 34158 ft 405 kts 237°
2026-05-06 19:29 58.72123 -47.44997 34157 ft 403 kts 236°
2026-05-06 19:29 58.68728 -47.53497 34161 ft 403 kts 236°
2026-05-06 19:30 58.65350 -47.61934 34150 ft 400 kts 237°
2026-05-06 19:30 58.61941 -47.70406 34145 ft 401 kts 236°
2026-05-06 19:31 58.58566 -47.78774 34136 ft 397 kts 235°
2026-05-06 19:31 58.53513 -47.91236 34120 ft 395 kts 236°
2026-05-06 19:32 58.50156 -47.99494 34120 ft 395 kts 235°
2026-05-06 19:32 58.46818 -48.07665 34110 ft 392 kts 236°
2026-05-06 19:33 58.43472 -48.15817 34103 ft 392 kts 236°
2026-05-06 19:33 58.40125 -48.23966 34102 ft 391 kts 236°
2026-05-06 19:34 58.36778 -48.32084 34091 ft 389 kts 236°
2026-05-06 19:34 58.33439 -48.40142 34087 ft 388 kts 235°
2026-05-06 19:35 58.30120 -48.48122 34083 ft 387 kts 236°
2026-05-06 19:35 58.26812 -48.56075 34078 ft 386 kts 235°
2026-05-06 19:36 58.23473 -48.64044 34080 ft 385 kts 235°
2026-05-06 19:36 58.20159 -48.71942 34068 ft 384 kts 234°
2026-05-06 19:37 58.16828 -48.79855 34063 ft 384 kts 234°
2026-05-06 19:37 58.14070 -48.86380 34063 ft 383 kts 235°
2026-05-06 19:38 58.10187 -48.95542 34057 ft 382 kts 234°
2026-05-06 19:38 58.06884 -49.03315 34054 ft 381 kts 234°
2026-05-06 19:39 58.03580 -49.11052 34042 ft 381 kts 234°
2026-05-06 19:39 58.00264 -49.18803 34039 ft 379 kts 234°
2026-05-06 19:40 57.96952 -49.26502 34036 ft 378 kts 234°
2026-05-06 19:40 57.93662 -49.34141 34032 ft 378 kts 234°
2026-05-06 19:41 57.90352 -49.41793 34022 ft 378 kts 234°
2026-05-06 19:41 57.87043 -49.49427 34018 ft 377 kts 234°
2026-05-06 19:42 57.83740 -49.57021 34018 ft 378 kts 234°
2026-05-06 19:42 57.80426 -49.64625 34010 ft 378 kts 233°
2026-05-06 19:43 57.77095 -49.72232 34003 ft 378 kts 232°
2026-05-06 19:43 57.73779 -49.79778 33998 ft 377 kts 233°
2026-05-06 19:44 57.70446 -49.87339 33990 ft 378 kts 232°
2026-05-06 19:44 57.67116 -49.94875 33985 ft 378 kts 232°
2026-05-06 19:45 57.63782 -50.02387 33982 ft 378 kts 232°
2026-05-06 19:45 57.60437 -50.09900 33979 ft 378 kts 233°
2026-05-06 19:46 57.57074 -50.17439 33972 ft 378 kts 232°
2026-05-06 19:46 57.53742 -50.24883 33969 ft 378 kts 232°
2026-05-06 19:47 57.50378 -50.32371 33961 ft 378 kts 233°
2026-05-06 19:47 57.47023 -50.39818 33963 ft 377 kts 233°
2026-05-06 19:48 57.43679 -50.47216 33955 ft 377 kts 232°
2026-05-06 19:48 57.40308 -50.54646 33950 ft 376 kts 232°
2026-05-06 19:49 57.36951 -50.62022 33943 ft 376 kts 233°
2026-05-06 19:49 57.33588 -50.69397 33943 ft 377 kts 232°
2026-05-06 19:50 57.30194 -50.76814 33937 ft 377 kts 232°
2026-05-06 19:50 57.26821 -50.84159 33932 ft 377 kts 232°
2026-05-06 19:51 57.23444 -50.91491 33930 ft 377 kts 232°
2026-05-06 19:51 57.20049 -50.98842 33924 ft 377 kts 232°
2026-05-06 19:52 57.16673 -51.06126 33924 ft 377 kts 232°
2026-05-06 19:52 57.13285 -51.13426 33921 ft 376 kts 231°
2026-05-06 19:53 57.09898 -51.20685 33918 ft 376 kts 232°
2026-05-06 19:53 57.06480 -51.27982 33911 ft 375 kts 232°
2026-05-06 19:54 57.03113 -51.35164 33910 ft 374 kts 232°
2026-05-06 19:54 56.99719 -51.42370 33913 ft 375 kts 232°
2026-05-06 19:55 56.96304 -51.49613 33907 ft 374 kts 232°
2026-05-06 19:55 56.92914 -51.56775 33901 ft 374 kts 232°
2026-05-06 19:56 56.89533 -51.63901 33902 ft 373 kts 232°
2026-05-06 19:56 56.86124 -51.71055 33901 ft 373 kts 231°
2026-05-06 19:57 56.82740 -51.78141 33895 ft 372 kts 231°
2026-05-06 19:57 56.79345 -51.85228 33885 ft 371 kts 231°
2026-05-06 19:58 56.75960 -51.92265 33877 ft 372 kts 231°
2026-05-06 19:58 56.72559 -51.99316 33874 ft 371 kts 231°
2026-05-06 19:59 56.69156 -52.06359 33862 ft 369 kts 231°
2026-05-06 19:59 56.65787 -52.13295 33869 ft 370 kts 231°
2026-05-06 20:00 56.62393 -52.20277 33869 ft 370 kts 231°
2026-05-06 20:00 56.58980 -52.27281 33870 ft 370 kts 231°
2026-05-06 20:01 56.55587 -52.34214 33877 ft 370 kts 231°
2026-05-06 20:01 56.52196 -52.41119 33875 ft 369 kts 232°
2026-05-06 20:02 56.48801 -52.48021 33873 ft 367 kts 232°
2026-05-06 20:02 56.45393 -52.54932 33872 ft 369 kts 231°
2026-05-06 20:03 56.41995 -52.61798 33868 ft 366 kts 231°
2026-05-06 20:03 56.38627 -52.68577 33871 ft 367 kts 230°
2026-05-06 20:04 56.35212 -52.75442 33867 ft 366 kts 231°
2026-05-06 20:04 56.31815 -52.82247 33866 ft 367 kts 230°
2026-05-06 20:05 56.28412 -52.89044 33863 ft 367 kts 230°
2026-05-06 20:05 56.25011 -52.95824 33863 ft 368 kts 231°
2026-05-06 20:06 56.21589 -53.02622 33863 ft 367 kts 230°
2026-05-06 20:06 56.18168 -53.09386 33854 ft 366 kts 230°
2026-05-06 20:07 56.14756 -53.16121 33855 ft 367 kts 230°
2026-05-06 20:07 56.11341 -53.22840 33845 ft 366 kts 231°
2026-05-06 20:08 56.07923 -53.29551 33857 ft 366 kts 231°
2026-05-06 20:08 56.04506 -53.36237 33853 ft 367 kts 231°
2026-05-06 20:09 56.01080 -53.42930 33845 ft 366 kts 231°
2026-05-06 20:09 55.97648 -53.49611 33842 ft 366 kts 230°
2026-05-06 20:10 55.94223 -53.56255 33847 ft 366 kts 231°
2026-05-06 20:10 55.90785 -53.62921 33850 ft 364 kts 231°
2026-05-06 20:11 55.87361 -53.69519 33851 ft 365 kts 230°
2026-05-06 20:11 55.83934 -53.76121 33849 ft 365 kts 230°
2026-05-06 20:12 55.80492 -53.82729 33844 ft 364 kts 230°
2026-05-06 20:12 55.77054 -53.89308 33851 ft 365 kts 231°
2026-05-06 20:13 55.73627 -53.95855 33845 ft 364 kts 231°
2026-05-06 20:13 55.70200 -54.02370 33843 ft 364 kts 231°
2026-05-06 20:14 55.66751 -54.08932 33844 ft 362 kts 230°
2026-05-06 20:14 55.63315 -54.15426 33851 ft 363 kts 230°
2026-05-06 20:15 55.59878 -54.21909 33850 ft 363 kts 230°
2026-05-06 20:15 55.56448 -54.28383 33852 ft 361 kts 230°
2026-05-06 20:16 55.53038 -54.34783 33850 ft 361 kts 230°
2026-05-06 20:16 55.49580 -54.41248 33846 ft 362 kts 230°
2026-05-06 20:17 55.46149 -54.47657 33841 ft 362 kts 231°
2026-05-06 20:17 55.42710 -54.54067 33843 ft 361 kts 230°
2026-05-06 20:18 55.39248 -54.60499 33843 ft 362 kts 230°
2026-05-06 20:18 55.35795 -54.66885 33843 ft 361 kts 230°
2026-05-06 20:19 55.32345 -54.73262 33841 ft 362 kts 230°
2026-05-06 20:19 55.28915 -54.79577 33841 ft 361 kts 229°
2026-05-06 20:20 55.25456 -54.85941 33844 ft 360 kts 229°
2026-05-06 20:20 55.22008 -54.92252 33838 ft 360 kts 230°
2026-05-06 20:21 55.18549 -54.98571 33841 ft 360 kts 230°
2026-05-06 20:21 55.15101 -55.04865 33842 ft 360 kts 230°
2026-05-06 20:22 55.11629 -55.11167 33840 ft 360 kts 230°
2026-05-06 20:22 55.08168 -55.17453 33832 ft 361 kts 229°
2026-05-06 20:23 55.04702 -55.23705 33828 ft 360 kts 230°
2026-05-06 20:23 55.01232 -55.29960 33824 ft 360 kts 230°
2026-05-06 20:24 54.97766 -55.36203 33823 ft 360 kts 229°
2026-05-06 20:24 54.94292 -55.42431 33825 ft 361 kts 230°
2026-05-06 20:25 54.90812 -55.48656 33822 ft 359 kts 230°
2026-05-06 20:25 54.87315 -55.54897 33824 ft 359 kts 229°
2026-05-06 20:26 54.83846 -55.61072 33826 ft 360 kts 230°
2026-05-06 20:26 54.80364 -55.67245 33831 ft 361 kts 229°
2026-05-06 20:27 54.76872 -55.73433 33826 ft 359 kts 228°
2026-05-06 20:27 54.73390 -55.79577 33833 ft 360 kts 229°
2026-05-06 20:28 54.69883 -55.85742 33841 ft 360 kts 229°
2026-05-06 20:28 54.66394 -55.91873 33844 ft 361 kts 229°
2026-05-06 20:29 54.62877 -55.98032 33839 ft 360 kts 229°
2026-05-06 20:29 54.59377 -56.04155 33838 ft 359 kts 229°
2026-05-06 20:30 54.54133 -56.13284 33841 ft 359 kts 229°
2026-05-06 20:31 54.50618 -56.19383 33840 ft 360 kts 229°
2026-05-06 20:31 54.47110 -56.25468 33840 ft 360 kts 229°
2026-05-06 20:32 54.43576 -56.31568 33841 ft 360 kts 229°
2026-05-06 20:32 54.40052 -56.37640 33842 ft 361 kts 229°
2026-05-06 20:33 54.36543 -56.43664 33837 ft 361 kts 229°
2026-05-06 20:33 54.32999 -56.49741 33835 ft 360 kts 229°
2026-05-06 20:34 54.29448 -56.55808 33834 ft 359 kts 229°
2026-05-06 20:34 54.25919 -56.61818 33832 ft 360 kts 229°
2026-05-06 20:35 54.22381 -56.67837 33830 ft 360 kts 228°
2026-05-06 20:35 54.18839 -56.73850 33828 ft 360 kts 229°
2026-05-06 20:36 54.15270 -56.79882 33828 ft 361 kts 228°
2026-05-06 20:36 54.11735 -56.85850 33827 ft 359 kts 229°
2026-05-06 20:37 54.08201 -56.91801 33823 ft 359 kts 229°
2026-05-06 20:37 54.04662 -56.97744 33823 ft 358 kts 228°
2026-05-06 20:38 54.01095 -57.03669 33821 ft 359 kts 228°
2026-05-06 20:38 53.97530 -57.09528 33815 ft 359 kts 229°
2026-05-06 20:39 53.93941 -57.15428 33815 ft 359 kts 228°
2026-05-06 20:39 53.90369 -57.21273 33820 ft 357 kts 229°
2026-05-06 20:40 53.86778 -57.27142 33827 ft 358 kts 229°
2026-05-06 20:40 53.83214 -57.32959 33826 ft 358 kts 229°
2026-05-06 20:41 53.79640 -57.38769 33825 ft 357 kts 229°
2026-05-06 20:41 53.76046 -57.44606 34112 ft 358 kts 228°
2026-05-06 20:41 53.74250 -57.47511 34357 ft 357 kts 229°
2026-05-06 20:42 53.72464 -57.50394 34561 ft 357 kts 229°
2026-05-06 20:42 53.70662 -57.53307 34772 ft 356 kts 229°
2026-05-06 20:42 53.68895 -57.56155 34934 ft 355 kts 229°
2026-05-06 20:42 53.67095 -57.59060 35045 ft 356 kts 229°
2026-05-06 20:43 53.65319 -57.61915 35130 ft 357 kts 229°
2026-05-06 20:43 53.61721 -57.67700 35315 ft 359 kts 228°
2026-05-06 20:44 53.58114 -57.73478 35506 ft 361 kts 228°
2026-05-06 20:44 53.56290 -57.76399 35620 ft 361 kts 227°
2026-05-06 20:44 53.54481 -57.79297 35717 ft 361 kts 227°
2026-05-06 20:45 53.50833 -57.85104 35835 ft 363 kts 228°
2026-05-06 20:45 53.47179 -57.90922 35831 ft 363 kts 228°
2026-05-06 20:46 53.43517 -57.96734 35850 ft 364 kts 227°
2026-05-06 20:46 53.39877 -58.02492 35828 ft 363 kts 227°
2026-05-06 20:47 53.36203 -58.08286 35834 ft 363 kts 228°
2026-05-06 20:47 53.32533 -58.14061 35829 ft 364 kts 228°
2026-05-06 20:48 53.28881 -58.19804 35830 ft 363 kts 227°
2026-05-06 20:48 53.25186 -58.25589 35825 ft 362 kts 228°
2026-05-06 20:49 53.21529 -58.31303 35825 ft 363 kts 228°
2026-05-06 20:49 53.17861 -58.37028 35826 ft 361 kts 227°
2026-05-06 20:50 53.14179 -58.42758 35827 ft 362 kts 227°
2026-05-06 20:50 53.10506 -58.48445 35819 ft 363 kts 227°
2026-05-06 20:51 53.06813 -58.54174 35813 ft 361 kts 227°
2026-05-06 20:51 53.03131 -58.59851 35819 ft 361 kts 227°
2026-05-06 20:52 52.99465 -58.65503 35834 ft 361 kts 226°
2026-05-06 20:52 52.95784 -58.71153 35838 ft 362 kts 226°
2026-05-06 20:53 52.92086 -58.76832 35840 ft 361 kts 226°
2026-05-06 20:53 52.88405 -58.82449 35841 ft 361 kts 227°
2026-05-06 20:54 52.84688 -58.88126 35838 ft 361 kts 226°
2026-05-06 20:54 52.81004 -58.93734 35839 ft 362 kts 226°
2026-05-06 20:55 52.77306 -58.99339 35839 ft 363 kts 226°
2026-05-06 20:55 52.73576 -59.04988 35833 ft 362 kts 226°
2026-05-06 20:56 52.69875 -59.10574 35827 ft 363 kts 226°
2026-05-06 20:56 52.66181 -59.16145 35836 ft 363 kts 227°
2026-05-06 20:57 52.62448 -59.21751 35836 ft 364 kts 226°
2026-05-06 20:57 52.58730 -59.27330 35831 ft 362 kts 226°
2026-05-06 20:58 52.54984 -59.32938 35827 ft 364 kts 226°
2026-05-06 20:58 52.51259 -59.38496 35829 ft 365 kts 226°
2026-05-06 20:59 52.47497 -59.44095 35820 ft 364 kts 226°
2026-05-06 20:59 52.43760 -59.49641 35826 ft 365 kts 226°
2026-05-06 21:00 52.39981 -59.55243 35827 ft 366 kts 226°
2026-05-06 21:00 52.36230 -59.60795 35827 ft 365 kts 226°
2026-05-06 21:01 52.32442 -59.66377 35834 ft 367 kts 226°
2026-05-06 21:01 52.28650 -59.71961 35828 ft 367 kts 226°
2026-05-06 21:02 52.24886 -59.77490 35834 ft 366 kts 225°
2026-05-06 21:02 52.21107 -59.83022 35832 ft 365 kts 225°
2026-05-06 21:03 52.17323 -59.88538 35849 ft 366 kts 225°
2026-05-06 21:03 52.13541 -59.94049 35850 ft 366 kts 225°
2026-05-06 21:04 52.09745 -59.99581 35854 ft 365 kts 225°
2026-05-06 21:04 52.05962 -60.05058 35858 ft 366 kts 225°
2026-05-06 21:05 52.02167 -60.10555 35858 ft 365 kts 225°
2026-05-06 21:05 51.98389 -60.16006 35858 ft 366 kts 225°
2026-05-06 21:06 51.94574 -60.21495 35856 ft 366 kts 225°
2026-05-06 21:06 51.90758 -60.26979 35854 ft 367 kts 225°
2026-05-06 21:07 51.86935 -60.32456 35843 ft 368 kts 224°
2026-05-06 21:07 51.83120 -60.37916 35848 ft 367 kts 224°
2026-05-06 21:08 51.79285 -60.43378 35847 ft 368 kts 225°
2026-05-06 21:08 51.75444 -60.48850 35848 ft 368 kts 225°
2026-05-06 21:09 51.71608 -60.54296 35854 ft 368 kts 225°
2026-05-06 21:09 51.67754 -60.59758 35852 ft 367 kts 224°
2026-05-06 21:10 51.63899 -60.65203 35859 ft 367 kts 224°
2026-05-06 21:10 51.60049 -60.70624 35864 ft 368 kts 224°
2026-05-06 21:11 51.56193 -60.76055 35858 ft 368 kts 224°
2026-05-06 21:11 51.52341 -60.81456 35864 ft 368 kts 224°
2026-05-06 21:12 51.48496 -60.86842 35865 ft 368 kts 224°
2026-05-06 21:12 51.44635 -60.92225 35868 ft 369 kts 224°
2026-05-06 21:13 51.40757 -60.97638 35867 ft 369 kts 224°
2026-05-06 21:13 51.36886 -61.03020 35867 ft 369 kts 224°
2026-05-06 21:14 51.33018 -61.08385 35871 ft 369 kts 224°
2026-05-06 21:14 51.29142 -61.13746 35868 ft 369 kts 224°
2026-05-06 21:15 51.25288 -61.19071 35869 ft 368 kts 224°
2026-05-06 21:15 51.21417 -61.24402 35870 ft 368 kts 224°
2026-05-06 21:16 51.17555 -61.29706 35869 ft 368 kts 224°
2026-05-06 21:16 51.13674 -61.35026 35879 ft 367 kts 224°
2026-05-06 21:17 51.09818 -61.40299 35874 ft 367 kts 224°
2026-05-06 21:17 51.05966 -61.45550 35875 ft 367 kts 224°
2026-05-06 21:18 51.02096 -61.50823 35882 ft 366 kts 224°
2026-05-06 21:18 50.98216 -61.56096 35884 ft 365 kts 224°
2026-05-06 21:19 50.94368 -61.61317 35876 ft 365 kts 224°
2026-05-06 21:19 50.90485 -61.66563 35883 ft 365 kts 224°
2026-05-06 21:20 50.86616 -61.71787 35877 ft 365 kts 224°
2026-05-06 21:20 50.82747 -61.76997 35878 ft 365 kts 224°
2026-05-06 21:21 50.78902 -61.82160 35871 ft 364 kts 223°
2026-05-06 21:21 50.75040 -61.87336 35873 ft 365 kts 224°
2026-05-06 21:22 50.71158 -61.92526 35866 ft 364 kts 224°
2026-05-06 21:22 50.67304 -61.97671 35865 ft 363 kts 223°
2026-05-06 21:23 50.63452 -62.02793 35863 ft 363 kts 224°
2026-05-06 21:23 50.59575 -62.07941 35860 ft 365 kts 224°
2026-05-06 21:24 50.55715 -62.13055 35859 ft 365 kts 224°
2026-05-06 21:24 50.51842 -62.18182 35859 ft 364 kts 223°
2026-05-06 21:25 50.47961 -62.23302 35864 ft 365 kts 223°
2026-05-06 21:25 50.44094 -62.28394 35866 ft 365 kts 223°
2026-05-06 21:26 50.40205 -62.33508 35869 ft 364 kts 223°
2026-05-06 21:26 50.36323 -62.38589 35871 ft 364 kts 223°
2026-05-06 21:27 50.32446 -62.43657 35873 ft 365 kts 223°
2026-05-06 21:27 50.28577 -62.48709 35883 ft 364 kts 223°
2026-05-06 21:28 50.24681 -62.53785 35880 ft 363 kts 223°
2026-05-06 21:28 50.20806 -62.58818 35885 ft 364 kts 223°
2026-05-06 21:29 50.16903 -62.63878 35885 ft 365 kts 223°
2026-05-06 21:29 50.13016 -62.68911 35892 ft 364 kts 222°
2026-05-06 21:30 50.09125 -62.73933 35896 ft 363 kts 222°
2026-05-06 21:30 50.05228 -62.78946 35901 ft 364 kts 222°
2026-05-06 21:31 50.01346 -62.83936 35898 ft 365 kts 222°
2026-05-06 21:31 49.97413 -62.88979 35903 ft 365 kts 222°
2026-05-06 21:32 49.93526 -62.93956 35904 ft 365 kts 222°
2026-05-06 21:32 49.87633 -63.01479 35905 ft 365 kts 222°
2026-05-06 21:33 49.83712 -63.06466 35907 ft 365 kts 221°
2026-05-06 21:33 49.79814 -63.11414 35903 ft 365 kts 222°
2026-05-06 21:34 49.75939 -63.16325 35904 ft 365 kts 221°
2026-05-06 21:34 49.72012 -63.21287 35900 ft 365 kts 222°
2026-05-06 21:35 49.68092 -63.26227 35896 ft 364 kts 222°
2026-05-06 21:35 49.64190 -63.31146 35884 ft 364 kts 222°
2026-05-06 21:36 49.60273 -63.36059 35881 ft 365 kts 222°
2026-05-06 21:36 49.56346 -63.40990 35877 ft 364 kts 222°
2026-05-06 21:37 49.52410 -63.45916 35872 ft 365 kts 222°
2026-05-06 21:37 49.48497 -63.50795 35861 ft 365 kts 222°
2026-05-06 21:38 49.44561 -63.55701 35866 ft 366 kts 221°
2026-05-06 21:38 49.40590 -63.60637 35869 ft 365 kts 222°
2026-05-06 21:39 49.36655 -63.65516 35866 ft 365 kts 221°
2026-05-06 21:39 49.32710 -63.70399 35874 ft 365 kts 221°
2026-05-06 21:40 49.28769 -63.75263 35867 ft 365 kts 221°
2026-05-06 21:40 49.24802 -63.80156 35870 ft 366 kts 221°
2026-05-06 21:41 49.20854 -63.85010 35871 ft 366 kts 221°
2026-05-06 21:41 49.16891 -63.89872 35868 ft 367 kts 221°
2026-05-06 21:42 49.12912 -63.94742 35866 ft 367 kts 221°
2026-05-06 21:42 49.08941 -63.99598 35868 ft 366 kts 221°
2026-05-06 21:43 49.04969 -64.04441 35861 ft 367 kts 221°
2026-05-06 21:43 49.00995 -64.09282 35865 ft 366 kts 221°
2026-05-06 21:44 48.97027 -64.14098 35859 ft 366 kts 221°
2026-05-06 21:44 48.93058 -64.18913 35847 ft 365 kts 221°
2026-05-06 21:45 48.89074 -64.23729 35844 ft 367 kts 221°
2026-05-06 21:45 48.85075 -64.28555 35837 ft 367 kts 221°
2026-05-06 21:46 48.81077 -64.33369 35838 ft 367 kts 221°
2026-05-06 21:46 48.77077 -64.38176 35839 ft 367 kts 221°
2026-05-06 21:47 48.73067 -64.42988 35838 ft 367 kts 220°
2026-05-06 21:47 48.69066 -64.47772 35837 ft 368 kts 221°
2026-05-06 21:48 48.65067 -64.52548 35831 ft 367 kts 221°
2026-05-06 21:48 48.61055 -64.57327 35834 ft 367 kts 220°
2026-05-06 21:49 48.57035 -64.62106 35826 ft 368 kts 221°
2026-05-06 21:49 48.53006 -64.66888 35824 ft 368 kts 220°
2026-05-06 21:50 48.48966 -64.71673 35820 ft 368 kts 219°
2026-05-06 21:50 48.44954 -64.76412 35816 ft 368 kts 220°
2026-05-06 21:51 48.40893 -64.81203 35815 ft 369 kts 220°
2026-05-06 21:51 48.36855 -64.85954 35817 ft 369 kts 220°
2026-05-06 21:52 48.32832 -64.90682 35818 ft 368 kts 220°
2026-05-06 21:52 48.28771 -64.95441 35814 ft 367 kts 219°
2026-05-06 21:53 48.24730 -65.00170 35817 ft 368 kts 219°
2026-05-06 21:53 48.20691 -65.04885 35804 ft 368 kts 219°
2026-05-06 21:54 48.16649 -65.09592 35799 ft 368 kts 219°
2026-05-06 21:54 48.12595 -65.14305 35801 ft 368 kts 219°
2026-05-06 21:55 48.08527 -65.19023 35798 ft 368 kts 219°
2026-05-06 21:55 48.04484 -65.23702 35798 ft 369 kts 219°
2026-05-06 21:56 48.00429 -65.28385 35798 ft 369 kts 220°
2026-05-06 21:56 47.96336 -65.33102 35798 ft 369 kts 219°
2026-05-06 21:57 47.92250 -65.37804 35805 ft 370 kts 219°
2026-05-06 21:57 47.88190 -65.42468 35808 ft 369 kts 219°
2026-05-06 21:58 47.84102 -65.47151 35804 ft 369 kts 219°
2026-05-06 21:58 47.80024 -65.51817 35807 ft 369 kts 219°
2026-05-06 21:59 47.75938 -65.56477 35813 ft 368 kts 220°
2026-05-06 21:59 47.71852 -65.61135 35817 ft 369 kts 219°
2026-05-06 22:00 47.67784 -65.65755 35823 ft 369 kts 219°
2026-05-06 22:00 47.63692 -65.70396 35820 ft 369 kts 218°
2026-05-06 22:01 47.59601 -65.75028 35818 ft 370 kts 219°
2026-05-06 22:01 47.55495 -65.79665 35814 ft 370 kts 218°
2026-05-06 22:02 47.51380 -65.84303 35812 ft 371 kts 219°
2026-05-06 22:02 47.47271 -65.88930 35812 ft 370 kts 219°
2026-05-06 22:03 47.43165 -65.93540 35807 ft 371 kts 218°
2026-05-06 22:03 47.39054 -65.98145 35798 ft 371 kts 218°
2026-05-06 22:04 47.34942 -66.02745 35797 ft 371 kts 218°
2026-05-06 22:04 47.30815 -66.07352 35795 ft 371 kts 219°
2026-05-06 22:05 47.26701 -66.11941 35793 ft 370 kts 218°
2026-05-06 22:05 47.22561 -66.16539 35786 ft 370 kts 219°
2026-05-06 22:06 47.18451 -66.21099 35787 ft 370 kts 218°
2026-05-06 22:06 47.14305 -66.25687 35789 ft 371 kts 218°
2026-05-06 22:07 47.10184 -66.30241 35789 ft 371 kts 218°
2026-05-06 22:07 47.06039 -66.34811 35786 ft 370 kts 219°
2026-05-06 22:08 47.01905 -66.39363 35784 ft 370 kts 218°
2026-05-06 22:08 46.97798 -66.43877 35781 ft 370 kts 218°
2026-05-06 22:09 46.93675 -66.48395 35784 ft 371 kts 218°
2026-05-06 22:09 46.89555 -66.52908 35778 ft 370 kts 218°
2026-05-06 22:10 46.85385 -66.57459 35786 ft 371 kts 218°
2026-05-06 22:10 46.81255 -66.61962 35776 ft 371 kts 218°
2026-05-06 22:11 46.77129 -66.66450 35779 ft 372 kts 218°
2026-05-06 22:11 46.72977 -66.70959 35774 ft 372 kts 217°
2026-05-06 22:12 46.68801 -66.75478 35787 ft 373 kts 218°
2026-05-06 22:12 46.64646 -66.79971 35781 ft 373 kts 218°
2026-05-06 22:13 46.60516 -66.84435 35789 ft 372 kts 217°
2026-05-06 22:13 46.56349 -66.88917 35787 ft 372 kts 218°
2026-05-06 22:14 46.52591 -66.92962 35786 ft 372 kts 218°